This demonstration page uses our WeatherBlox Daily Observations layout. Learn more.

Left ArrowRight Arrow

Hourly Observations for June 27, 2016

Temp ( °F °C ) Dew Point ( °F °C ) Humidity (%) Winds ( mph kmh ) Pressure ( in mb ) Visibility ( mi km ) Precip ( " mm )
12:54 am 00:54 Clear 71 21.7 68 20 90 90 S 5 7 30.11 1020 10 16.0934 0 0
1:54 am 01:54 Clear 72 22.2 69 20.6 91 91 S 5 7 30.1 1019 10 16.0934 0 0
2:54 am 02:54 Clear 72 22.2 69 20.6 91 91 Calm 30.08 1019 10 16.0934 0 0
3:54 am 03:54 Clear 72 22.2 69 20.6 91 91 SSE 5 7 30.08 1019 10 16.0934 0 0
4:54 am 04:54 Clear 73 22.8 69 20.6 87 87 Calm 30.07 1018 10 16.0934 0 0
5:54 am 05:54 Clear 72 22.2 70 21.1 94 94 SW 5 7 30.08 1019 8 12.87472 0 0
6:54 am 06:54 Sunny 72 22.2 70 21.1 94 94 SE 3 6 30.1 1019 7 11.26538 0 0
7:54 am 07:54 Sunny with Mist and Fog 74 23.3 71 21.7 91 91 S 6 9 30.12 1020 6 9.65604 0 0
8:54 am 08:54 Sunny 80 26.7 73 22.8 79 79 Calm 30.13 1020 8 12.87472 0 0
9:54 am 09:54 Sunny 86 30 68 20 55 55 W 9 15 30.11 1020 10 16.0934 0 0
10:54 am 10:54 Sunny 89 31.7 65 18.3 45 45 NNW 7 11 30.11 1020 10 16.0934 0 0
11:54 am 11:54 Sunny 91 32.8 62 16.7 38 38 NW 5 7 30.11 1020 10 16.0934 0 0
12:54 pm 12:54 Sunny 92 33.3 65 18.3 41 41 undefined N/A 30.11 1020 10 16.0934 0 0
1:54 pm 13:54 Sunny 92 33.3 66 18.9 43 43 NNE 9 15 30.11 1020 10 16.0934 0 0
2:54 pm 14:54 Sunny 91 32.8 68 20 47 47 NNW 12 19 30.09 1019 10 16.0934 0 0
3:54 pm 15:54 Sunny 92 33.3 67 19.4 44 44 N 12 19 30.08 1019 10 16.0934 0 0
4:54 pm 16:54 Sunny 91 32.8 67 19.4 45 45 NE 14 22 30.07 1018 10 16.0934 0 0
5:26 pm 17:26 Sunny 88 31 68 20 52 52 ENE 16 26 30.06 1018 10 16.0934 0 0
5:54 pm 17:54 Sunny 87 30.6 65 18.3 48 48 E 18 30 30.1 1019 10 16.0934 0 0
6:54 pm 18:54 Sunny 86 30 65 18.3 49 49 ENE 9 15 30.11 1020 10 16.0934 0 0
7:54 pm 19:54 Sunny 82 27.8 65 18.3 56 56 NE 8 13 30.12 1020 10 16.0934 0 0
8:54 pm 20:54 Sunny 79 26.1 64 17.8 60 60 NE 5 7 30.12 1020 10 16.0934 0 0
9:54 pm 21:54 Clear 77 25 64 17.8 64 64 N 6 9 30.14 1021 10 16.0934 0 0
10:54 pm 22:54 Clear 74 23.3 65 18.3 74 74 NNE 7 11 30.16 1021 10 16.0934 0 0
11:54 pm 23:54 Clear 72 22.2 63 17.2 73 73 NE 3 6 30.18 1022 10 16.0934 0 0

Powered by AerisWeather